| time (UTC) | temp F | wind direction | speed knots | gust knots | rain 1hr in | rain 24hr in | rain mn in | humidity % | barometer mb |
| 20260507030657 | 42 | 271 | 0.0 | 0.0 | 0.00 | 0.42 | 0.42 | 93 | 1009.8 |
| 20260507030155 | 42 | 270 | 0.0 | 0.0 | 0.00 | 0.42 | 0.42 | 93 | 1009.6 |
| 20260507025900 | 42 | 270 | 0.0 | 0.0 | 0.00 | 0.42 | 0.42 | 93 | 1009.5 |
| 20260507025351 | 42 | 270 | 0.0 | 0.0 | 0.00 | 0.42 | 0.42 | 93 | 1009.6 |
| 20260507024625 | 43 | 270 | 0.0 | 0.0 | 0.00 | 0.42 | 0.42 | 93 | 1009.8 |
| 20260507024123 | 42 | 270 | 0.0 | 0.0 | 0.00 | 0.42 | 0.42 | 93 | 1009.8 |
| 20260507023615 | 42 | 270 | 0.0 | 0.0 | 0.00 | 0.42 | 0.42 | 93 | 1009.7 |
| 20260507023115 | 42 | 270 | 0.0 | 0.0 | 0.00 | 0.42 | 0.42 | 93 | 1009.6 |
| 20260507022557 | 42 | 270 | 0.0 | 0.0 | 0.00 | 0.42 | 0.42 | 93 | 1009.4 |
| 20260507022054 | 42 | 270 | 0.0 | 0.0 | 0.00 | 0.42 | 0.42 | 93 | 1009.6 |
| 20260507021550 | 42 | 270 | 0.0 | 0.0 | 0.00 | 0.42 | 0.42 | 93 | 1009.7 |
| 20260507021040 | 42 | 270 | 0.0 | 0.0 | 0.00 | 0.42 | 0.42 | 93 | 1009.7 |
| 20260507020539 | 42 | 270 | 0.0 | 0.0 | 0.00 | 0.42 | 0.42 | 93 | 1009.7 |
| 20260507020035 | 42 | 270 | 0.0 | 0.0 | 0.00 | 0.42 | 0.42 | 93 | 1009.6 |
| 20260507015747 | 42 | 270 | 0.0 | 0.0 | 0.00 | 0.42 | 0.42 | 93 | 1009.7 |
| 20260507015016 | 42 | 270 | 0.0 | 0.0 | 0.00 | 0.42 | 0.42 | 93 | 1009.8 |
| 20260507014729 | 42 | 270 | 0.0 | 0.0 | 0.00 | 0.42 | 0.42 | 93 | 1009.8 |
| 20260507013951 | 42 | 270 | 0.0 | 0.0 | 0.00 | 0.42 | 0.42 | 93 | 1010.0 |
| 20260507013713 | 42 | 270 | 0.0 | 0.0 | 0.00 | 0.42 | 0.42 | 93 | 1009.8 |
| 20260507012947 | 42 | 270 | 0.0 | 0.0 | 0.00 | 0.42 | 0.42 | 93 | 1009.7 |
| 20260507012438 | 42 | 270 | 0.0 | 0.0 | 0.00 | 0.42 | 0.42 | 93 | 1009.6 |
| 20260507011929 | 42 | 270 | 0.0 | 0.0 | 0.00 | 0.42 | 0.42 | 93 | 1009.6 |
| 20260507011429 | 42 | 270 | 0.0 | 0.0 | 0.00 | 0.42 | 0.42 | 93 | 1009.8 |
| 20260507010926 | 42 | 270 | 0.9 | 1.7 | 0.00 | 0.42 | 0.42 | 93 | 1009.5 |
| 20260507010422 | 42 | 270 | 0.9 | 1.7 | 0.00 | 0.42 | 0.42 | 93 | 1009.6 |
| 20260507010137 | 42 | 270 | 0.0 | 1.7 | 0.00 | 0.42 | 0.42 | 93 | 1009.5 |
| 20260507005414 | 42 | 270 | 0.9 | 1.7 | 0.00 | 0.42 | 0.42 | 93 | 1009.4 |
| 20260507004907 | 42 | 270 | 0.9 | 1.7 | 0.00 | 0.42 | 0.42 | 93 | 1009.5 |
| 20260507004400 | 42 | 270 | 0.9 | 2.6 | 0.00 | 0.42 | 0.42 | 93 | 1009.3 |
| 20260507003856 | 42 | 270 | 1.7 | 2.6 | 0.00 | 0.42 | 0.42 | 93 | 1009.3 |
| 20260507003356 | 42 | 270 | 1.7 | 3.5 | 0.00 | 0.42 | 0.42 | 93 | 1009.3 |
| 20260507002856 | 42 | 269 | 1.7 | 3.5 | 0.00 | 0.42 | 0.42 | 93 | 1009.0 |
| 20260507002354 | 42 | 268 | 2.6 | 5.2 | 0.00 | 0.42 | 0.42 | 93 | 1009.2 |
| 20260507002334 | 42 | 273 | 3.5 | 7.0 | 0.00 | 0.42 | 0.42 | 93 | 1009.2 |
| 20260507001338 | 42 | 267 | 3.5 | 7.0 | 0.00 | 0.42 | 0.42 | 93 | 1009.2 |
| 20260507000835 | 42 | 271 | 3.5 | 5.2 | 0.00 | 0.42 | 0.42 | 93 | 1009.2 |
| 20260507000331 | 42 | 276 | 3.5 | 5.2 | 0.00 | 0.42 | 0.42 | 93 | 1008.9 |
| 20260506235829 | 42 | 288 | 3.5 | 6.1 | 0.00 | 0.42 | 0.42 | 93 | 1009.0 |
| 20260506235324 | 42 | 266 | 4.3 | 7.0 | 0.00 | 0.42 | 0.42 | 93 | 1008.9 |
| 20260506234817 | 42 | 281 | 5.2 | 7.0 | 0.00 | 0.42 | 0.42 | 93 | 1009.1 |
| 20260506234317 | 42 | 265 | 5.2 | 7.0 | 0.00 | 0.42 | 0.42 | 93 | 1009.1 |
| 20260506233817 | 42 | 264 | 4.3 | 7.0 | 0.00 | 0.42 | 0.42 | 93 | 1008.7 |
| 20260506233318 | 42 | 272 | 3.5 | 7.0 | 0.00 | 0.43 | 0.42 | 93 | 1008.5 |
| 20260506232816 | 42 | 275 | 3.5 | 6.1 | 0.00 | 0.43 | 0.42 | 93 | 1008.5 |
| 20260506232315 | 42 | 263 | 3.5 | 5.2 | 0.00 | 0.43 | 0.42 | 93 | 1008.5 |
| 20260506232035 | 42 | 281 | 2.6 | 5.2 | 0.00 | 0.43 | 0.42 | 93 | 1008.4 |
| 20260506231310 | 42 | 271 | 2.6 | 5.2 | 0.00 | 0.43 | 0.42 | 93 | 1008.4 |
| 20260506230804 | 42 | 282 | 2.6 | 4.3 | 0.00 | 0.43 | 0.42 | 93 | 1008.4 |
| 20260506230303 | 42 | 286 | 3.5 | 7.0 | 0.00 | 0.43 | 0.42 | 93 | 1008.3 |
| 20260506225802 | 42 | 299 | 4.3 | 7.8 | 0.00 | 0.48 | 0.42 | 93 | 1008.2 |
| 20260506225301 | 43 | 290 | 4.3 | 7.8 | 0.00 | 0.56 | 0.42 | 93 | 1008.1 |
| 20260506224759 | 43 | 284 | 4.3 | 7.0 | 0.00 | 0.60 | 0.42 | 93 | 1008.1 |
| 20260506224259 | 43 | 279 | 5.2 | 9.6 | 0.00 | 0.61 | 0.42 | 93 | 1008.1 |
| 20260506223759 | 42 | 315 | 4.3 | 9.6 | 0.00 | 0.61 | 0.42 | 93 | 1008.0 |
| 20260506223259 | 43 | 293 | 3.5 | 8.7 | 0.00 | 0.61 | 0.42 | 93 | 1008.0 |
| 20260506223021 | 43 | 339 | 4.3 | 7.8 | 0.00 | 0.61 | 0.42 | 93 | 1008.1 |
| 20260506222300 | 43 | 317 | 5.2 | 9.6 | 0.00 | 0.61 | 0.42 | 93 | 1008.2 |
| 20260506221757 | 43 | 306 | 4.3 | 9.6 | 0.00 | 0.61 | 0.42 | 93 | 1008.2 |
| 20260506221256 | 43 | 291 | 4.3 | 7.8 | 0.00 | 0.61 | 0.42 | 93 | 1008.3 |
| 20260506220754 | 43 | 287 | 3.5 | 8.7 | 0.00 | 0.61 | 0.42 | 93 | 1008.5 |
| 20260506220253 | 43 | 319 | 3.5 | 8.7 | 0.00 | 0.61 | 0.42 | 93 | 1008.4 |
| 20260506215751 | 43 | 338 | 3.5 | 7.0 | 0.00 | 0.61 | 0.42 | 93 | 1007.9 |
| 20260506215251 | 43 | 318 | 3.5 | 7.8 | 0.00 | 0.61 | 0.42 | 93 | 1008.1 |
| 20260506214751 | 43 | 284 | 3.5 | 7.8 | 0.00 | 0.61 | 0.42 | 93 | 1008.0 |
| 20260506214253 | 43 | 276 | 3.5 | 9.6 | 0.00 | 0.61 | 0.42 | 93 | 1008.1 |
| 20260506213749 | 43 | 290 | 3.5 | 9.6 | 0.00 | 0.61 | 0.42 | 93 | 1008.1 |
| 20260506213249 | 43 | 309 | 3.5 | 7.8 | 0.00 | 0.61 | 0.42 | 94 | 1007.9 |
| 20260506212750 | 43 | 322 | 3.5 | 9.6 | 0.00 | 0.61 | 0.42 | 93 | 1007.9 |
| 20260506212731 | 43 | 327 | 4.3 | 12.2 | 0.00 | 0.61 | 0.42 | 93 | 1007.8 |
| 20260506211747 | 42 | 320 | 4.3 | 12.2 | 0.00 | 0.61 | 0.42 | 93 | 1007.7 |
| 20260506211514 | 43 | 305 | 4.3 | 9.6 | 0.00 | 0.61 | 0.42 | 93 | 1007.8 |
| 20260506210742 | 42 | 317 | 5.2 | 12.2 | 0.00 | 0.61 | 0.42 | 93 | 1007.8 |
| 20260506210242 | 42 | 329 | 5.2 | 12.2 | 0.00 | 0.61 | 0.42 | 93 | 1007.7 |
| 20260506205742 | 43 | 331 | 5.2 | 12.2 | 0.00 | 0.61 | 0.42 | 93 | 1007.5 |
| 20260506205242 | 43 | 318 | 6.1 | 11.3 | 0.00 | 0.61 | 0.42 | 93 | 1007.4 |
| 20260506204738 | 43 | 325 | 6.1 | 10.4 | 0.00 | 0.61 | 0.42 | 93 | 1007.2 |
| 20260506204238 | 43 | 330 | 5.2 | 10.4 | 0.00 | 0.61 | 0.42 | 93 | 1007.2 |
| 20260506203736 | 43 | 311 | 6.1 | 13.0 | 0.00 | 0.61 | 0.42 | 93 | 1006.9 |
| 20260506203458 | 43 | 319 | 6.1 | 13.0 | 0.00 | 0.61 | 0.42 | 93 | 1006.9 |
| 20260506202738 | 43 | 321 | 6.1 | 11.3 | 0.00 | 0.61 | 0.42 | 93 | 1006.9 |
| 20260506202236 | 43 | 0 | 6.1 | 12.2 | 0.00 | 0.61 | 0.42 | 93 | 1006.8 |
| 20260506201737 | 43 | 339 | 7.0 | 13.0 | 0.01 | 0.61 | 0.42 | 93 | 1006.8 |
| 20260506201238 | 43 | 297 | 8.7 | 16.5 | 0.01 | 0.61 | 0.42 | 93 | 1006.8 |
| 20260506200741 | 43 | 284 | 7.8 | 16.5 | 0.01 | 0.61 | 0.42 | 93 | 1006.7 |
| 20260506200237 | 44 | 299 | 5.2 | 13.9 | 0.01 | 0.61 | 0.42 | 93 | 1006.6 |
| 20260506195736 | 44 | 327 | 4.3 | 9.6 | 0.01 | 0.61 | 0.42 | 93 | 1006.4 |
| 20260506195232 | 44 | 291 | 5.2 | 10.4 | 0.01 | 0.61 | 0.42 | 93 | 1006.4 |
| 20260506194733 | 44 | 322 | 6.1 | 10.4 | 0.01 | 0.61 | 0.42 | 93 | 1006.4 |
| 20260506194234 | 44 | 333 | 7.0 | 12.2 | 0.01 | 0.61 | 0.42 | 93 | 1006.4 |
| 20260506193734 | 44 | 302 | 5.2 | 12.2 | 0.01 | 0.61 | 0.42 | 93 | 1006.4 |
| 20260506193230 | 45 | 319 | 3.5 | 7.8 | 0.01 | 0.61 | 0.42 | 93 | 1006.4 |
| 20260506192728 | 45 | 341 | 3.5 | 7.8 | 0.02 | 0.61 | 0.42 | 93 | 1006.4 |
| 20260506192226 | 45 | 333 | 3.5 | 9.6 | 0.02 | 0.61 | 0.42 | 93 | 1006.4 |
| 20260506191721 | 45 | 331 | 3.5 | 10.4 | 0.01 | 0.60 | 0.41 | 93 | 1006.6 |
| 20260506191220 | 45 | 338 | 4.3 | 12.2 | 0.01 | 0.60 | 0.41 | 93 | 1006.6 |
| 20260506190717 | 44 | 329 | 6.1 | 12.2 | 0.02 | 0.60 | 0.41 | 93 | 1006.3 |
| 20260506190216 | 44 | 292 | 5.2 | 11.3 | 0.02 | 0.60 | 0.41 | 93 | 1006.3 |
| 20260506185711 | 44 | 290 | 6.1 | 13.0 | 0.02 | 0.60 | 0.41 | 93 | 1006.1 |
| 20260506185210 | 44 | 299 | 6.1 | 13.0 | 0.02 | 0.61 | 0.41 | 93 | 1006.2 |
| 20260506184707 | 45 | 288 | 5.2 | 11.3 | 0.02 | 0.61 | 0.41 | 93 | 1006.1 |
| 20260506184207 | 45 | 325 | 4.3 | 11.3 | 0.02 | 0.62 | 0.41 | 93 | 1006.0 |
| 20260506184151 | 45 | 327 | 4.3 | 10.4 | 0.02 | 0.64 | 0.41 | 93 | 1006.1 |
| 20260506183155 | 45 | 329 | 4.3 | 10.4 | 0.02 | 0.64 | 0.41 | 93 | 1005.9 |
| 20260506182652 | 45 | 289 | 5.2 | 9.6 | 0.02 | 0.63 | 0.40 | 93 | 1005.8 |
| 20260506182420 | 45 | 339 | 6.1 | 10.4 | 0.02 | 0.63 | 0.40 | 93 | 1005.7 |
| 20260506181641 | 45 | 289 | 7.0 | 10.4 | 0.02 | 0.63 | 0.40 | 93 | 1005.8 |
| 20260506181139 | 45 | 288 | 6.1 | 10.4 | 0.02 | 0.63 | 0.40 | 93 | 1005.8 |
| 20260506180638 | 45 | 293 | 4.3 | 10.4 | 0.01 | 0.62 | 0.39 | 93 | 1005.8 |
| 20260506180406 | 46 | 329 | 3.5 | 7.0 | 0.01 | 0.62 | 0.39 | 93 | 1005.8 |
| 20260506175903 | 46 | 322 | 4.3 | 7.0 | 0.01 | 0.62 | 0.39 | 93 | 1005.6 |
| 20260506175357 | 46 | 350 | 3.5 | 7.0 | 0.01 | 0.62 | 0.39 | 93 | 1005.6 |
| 20260506174622 | 46 | 313 | 2.6 | 7.8 | 0.01 | 0.62 | 0.39 | 93 | 1005.5 |
| 20260506174120 | 45 | 321 | 3.5 | 7.8 | 0.01 | 0.62 | 0.39 | 93 | 1005.5 |
| 20260506173616 | 46 | 283 | 2.6 | 5.2 | 0.01 | 0.62 | 0.39 | 93 | 1005.5 |
| 20260506173117 | 46 | 327 | 2.6 | 7.0 | 0.01 | 0.62 | 0.39 | 93 | 1005.3 |
| 20260506172619 | 46 | 311 | 2.6 | 7.0 | 0.01 | 0.61 | 0.38 | 93 | 1005.3 |
| 20260506172113 | 46 | 291 | 1.7 | 6.1 | 0.01 | 0.61 | 0.38 | 93 | 1005.4 |
| 20260506171609 | 46 | 346 | 2.6 | 7.0 | 0.01 | 0.61 | 0.38 | 93 | 1005.3 |
| 20260506171105 | 45 | 316 | 2.6 | 7.0 | 0.01 | 0.61 | 0.38 | 93 | 1005.4 |
| 20260506170604 | 45 | 344 | 3.5 | 7.0 | 0.01 | 0.61 | 0.38 | 93 | 1005.4 |
| 20260506170106 | 45 | 333 | 3.5 | 7.8 | 0.01 | 0.61 | 0.38 | 93 | 1005.4 |
| 20260506165606 | 45 | 308 | 3.5 | 9.6 | 0.01 | 0.61 | 0.38 | 93 | 1005.4 |
| 20260506165323 | 45 | 296 | 2.6 | 9.6 | 0.01 | 0.61 | 0.38 | 93 | 1005.1 |
| 20260506164603 | 45 | 10 | 2.6 | 7.0 | 0.01 | 0.61 | 0.38 | 93 | 1005.1 |
| 20260506164059 | 45 | 315 | 1.7 | 7.0 | 0.01 | 0.61 | 0.38 | 93 | 1005.1 |
| 20260506163558 | 45 | 326 | 0.9 | 3.5 | 0.02 | 0.61 | 0.38 | 93 | 1005.2 |
| 20260506163546 | 45 | 343 | 1.7 | 5.2 | 0.02 | 0.61 | 0.38 | 93 | 1005.3 |
| 20260506162551 | 45 | 305 | 3.5 | 7.0 | 0.01 | 0.60 | 0.37 | 93 | 1005.2 |
| 20260506162053 | 45 | 345 | 3.5 | 7.0 | 0.01 | 0.60 | 0.37 | 93 | 1005.1 |
| 20260506161552 | 45 | 355 | 3.5 | 7.0 | 0.01 | 0.60 | 0.37 | 93 | 1005.1 |
| 20260506161050 | 44 | 344 | 3.5 | 7.0 | 0.01 | 0.60 | 0.37 | 93 | 1004.9 |
| 20260506160550 | 45 | 336 | 1.7 | 7.0 | 0.02 | 0.60 | 0.37 | 93 | 1004.9 |
| 20260506160051 | 45 | 342 | 2.6 | 7.0 | 0.02 | 0.60 | 0.37 | 93 | 1004.9 |
| 20260506155809 | 44 | 313 | 3.5 | 7.0 | 0.02 | 0.60 | 0.37 | 93 | 1004.8 |
| 20260506155050 | 44 | 328 | 3.5 | 7.0 | 0.02 | 0.60 | 0.37 | 93 | 1004.8 |
| 20260506154550 | 44 | 355 | 2.6 | 7.0 | 0.02 | 0.60 | 0.37 | 93 | 1005.0 |
| 20260506154049 | 44 | 351 | 2.6 | 5.2 | 0.02 | 0.60 | 0.37 | 93 | 1005.0 |
| 20260506153545 | 44 | 349 | 1.7 | 4.3 | 0.01 | 0.59 | 0.36 | 93 | 1004.9 |
| 20260506153047 | 44 | 327 | 1.7 | 4.3 | 0.01 | 0.59 | 0.36 | 93 | 1004.8 |
| 20260506152547 | 44 | 317 | 1.7 | 4.3 | 0.02 | 0.59 | 0.36 | 93 | 1004.8 |
| 20260506152045 | 44 | 340 | 1.7 | 4.3 | 0.02 | 0.59 | 0.36 | 93 | 1004.7 |
| 20260506151545 | 44 | 5 | 2.6 | 4.3 | 0.02 | 0.59 | 0.36 | 93 | 1004.7 |
| 20260506151305 | 44 | 355 | 2.6 | 5.2 | 0.02 | 0.59 | 0.36 | 93 | 1004.8 |
| 20260506150542 | 44 | 306 | 1.7 | 5.2 | 0.02 | 0.58 | 0.36 | 93 | 1004.9 |
| 20260506150040 | 44 | 344 | 2.6 | 5.2 | 0.02 | 0.58 | 0.35 | 93 | 1004.8 |
| 20260506145758 | 44 | 0 | 2.6 | 5.2 | 0.02 | 0.58 | 0.35 | 93 | 1004.6 |
| 20260506145039 | 44 | 340 | 2.6 | 4.3 | 0.03 | 0.58 | 0.35 | 93 | 1004.5 |
| 20260506144538 | 44 | 0 | 3.5 | 7.0 | 0.03 | 0.58 | 0.35 | 93 | 1004.6 |
| 20260506144031 | 44 | 355 | 3.5 | 7.0 | 0.04 | 0.58 | 0.35 | 93 | 1004.7 |
| 20260506143757 | 44 | 355 | 2.6 | 7.0 | 0.04 | 0.58 | 0.35 | 92 | 1004.5 |
| 20260506143030 | 44 | 355 | 2.6 | 7.0 | 0.04 | 0.58 | 0.35 | 92 | 1004.3 |
| 20260506142530 | 45 | 34 | 2.6 | 6.1 | 0.03 | 0.57 | 0.35 | 93 | 1004.2 |
| 20260506142020 | 45 | 35 | 3.5 | 7.8 | 0.04 | 0.57 | 0.34 | 93 | 1004.3 |
| 20260506141518 | 44 | 32 | 3.5 | 7.8 | 0.05 | 0.57 | 0.34 | 93 | 1004.2 |
| 20260506141020 | 44 | 349 | 2.6 | 7.0 | 0.05 | 0.57 | 0.34 | 93 | 1004.4 |
| 20260506140519 | 44 | 5 | 2.6 | 7.0 | 0.04 | 0.56 | 0.33 | 92 | 1004.4 |
| 20260506140015 | 44 | 355 | 4.3 | 7.0 | 0.05 | 0.56 | 0.33 | 92 | 1004.3 |
| 20260506135516 | 44 | 0 | 3.5 | 7.0 | 0.06 | 0.56 | 0.33 | 92 | 1004.4 |
| 20260506135014 | 44 | 341 | 3.5 | 7.0 | 0.06 | 0.55 | 0.32 | 92 | 1004.3 |
| 20260506134515 | 45 | 27 | 4.3 | 7.0 | 0.07 | 0.55 | 0.32 | 92 | 1004.5 |
| 20260506134012 | 45 | 355 | 3.5 | 5.2 | 0.08 | 0.54 | 0.31 | 92 | 1004.6 |
| 20260506133510 | 45 | 345 | 2.6 | 4.3 | 0.09 | 0.54 | 0.31 | 92 | 1004.5 |
| 20260506133011 | 46 | 355 | 1.7 | 3.5 | 0.10 | 0.54 | 0.31 | 92 | 1004.6 |
| 20260506132459 | 46 | 323 | 0.0 | 2.6 | 0.10 | 0.54 | 0.31 | 92 | 1004.7 |
| 20260506131959 | 47 | 304 | 0.0 | 0.0 | 0.09 | 0.53 | 0.30 | 92 | 1004.7 |
| 20260506131717 | 47 | 303 | 0.0 | 1.7 | 0.09 | 0.52 | 0.29 | 92 | 1004.8 |
| 20260506130950 | 47 | 304 | 0.9 | 1.7 | 0.10 | 0.52 | 0.29 | 92 | 1004.8 |
| 20260506130450 | 47 | 307 | 0.9 | 2.6 | 0.11 | 0.52 | 0.29 | 92 | 1004.9 |
| 20260506125951 | 47 | 310 | 0.9 | 2.6 | 0.10 | 0.50 | 0.28 | 92 | 1004.9 |
| 20260506125453 | 47 | 9 | 0.9 | 1.7 | 0.10 | 0.50 | 0.27 | 92 | 1004.9 |
| 20260506124948 | 47 | 9 | 1.7 | 3.5 | 0.09 | 0.49 | 0.26 | 92 | 1004.8 |
| 20260506124712 | 47 | 9 | 3.5 | 10.4 | 0.08 | 0.48 | 0.25 | 92 | 1004.8 |
| 20260506123949 | 47 | 283 | 4.3 | 10.4 | 0.07 | 0.46 | 0.24 | 92 | 1004.8 |
| 20260506123449 | 47 | 65 | 2.6 | 7.0 | 0.07 | 0.45 | 0.22 | 92 | 1004.3 |
| 20260506122948 | 47 | 63 | 2.6 | 7.8 | 0.06 | 0.44 | 0.21 | 92 | 1004.5 |
| 20260506122713 | 47 | 49 | 2.6 | 7.8 | 0.07 | 0.44 | 0.21 | 92 | 1004.5 |
| 20260506121948 | 47 | 61 | 2.6 | 5.2 | 0.08 | 0.44 | 0.21 | 92 | 1004.4 |
| 20260506121450 | 47 | 15 | 2.6 | 7.0 | 0.07 | 0.43 | 0.20 | 92 | 1004.5 |
| 20260506121208 | 47 | 11 | 2.6 | 7.8 | 0.07 | 0.42 | 0.19 | 92 | 1004.4 |
| 20260506120446 | 47 | 327 | 2.6 | 7.8 | 0.07 | 0.41 | 0.18 | 92 | 1004.3 |
| 20260506115950 | 47 | 344 | 2.6 | 6.1 | 0.06 | 0.40 | 0.17 | 92 | 1004.5 |
| 20260506115444 | 47 | 328 | 4.3 | 11.3 | 0.07 | 0.40 | 0.17 | 92 | 1004.5 |
| 20260506114944 | 48 | 270 | 4.3 | 11.3 | 0.07 | 0.40 | 0.17 | 91 | 1004.5 |
| 20260506114652 | 49 | 261 | 0.9 | 7.0 | 0.07 | 0.39 | 0.16 | 92 | 1004.5 |
| 20260506114541 | 48 | 144 | 1.7 | 7.0 | 0.08 | 0.40 | 0.17 | 92 | 1004.4 |
| 20260506113445 | 49 | 112 | 0.0 | 2.6 | 0.06 | 0.38 | 0.16 | 92 | 1004.5 |
| 20260506112948 | 48 | 113 | 0.0 | 2.6 | 0.06 | 0.38 | 0.15 | 92 | 1004.4 |
| 20260506112443 | 48 | 42 | 0.0 | 0.0 | 0.06 | 0.37 | 0.14 | 92 | 1004.4 |
| 20260506111940 | 48 | 43 | 0.0 | 0.0 | 0.05 | 0.36 | 0.13 | 92 | 1004.6 |
| 20260506111442 | 48 | 42 | 0.0 | 0.9 | 0.05 | 0.36 | 0.13 | 92 | 1004.7 |
| 20260506110937 | 48 | 42 | 0.0 | 2.6 | 0.05 | 0.35 | 0.12 | 92 | 1004.7 |
| 20260506110436 | 48 | 42 | 0.9 | 3.5 | 0.04 | 0.34 | 0.11 | 92 | 1004.8 |
| 20260506105930 | 48 | 63 | 0.9 | 3.5 | 0.05 | 0.34 | 0.11 | 92 | 1004.7 |
| 20260506105430 | 48 | 65 | 1.7 | 7.0 | 0.05 | 0.33 | 0.10 | 92 | 1004.8 |
| 20260506104930 | 47 | 65 | 2.6 | 7.8 | 0.05 | 0.33 | 0.10 | 91 | 1004.7 |
| 20260506104431 | 47 | 80 | 2.6 | 7.8 | 0.04 | 0.32 | 0.09 | 92 | 1004.7 |
| 20260506103925 | 47 | 26 | 2.6 | 5.2 | 0.04 | 0.32 | 0.09 | 91 | 1004.6 |
| 20260506103426 | 47 | 247 | 2.6 | 7.8 | 0.05 | 0.32 | 0.09 | 91 | 1004.8 |
| 20260506102924 | 47 | 48 | 3.5 | 7.8 | 0.05 | 0.32 | 0.09 | 91 | 1004.5 |
| 20260506102424 | 47 | 15 | 3.5 | 7.8 | 0.04 | 0.31 | 0.09 | 91 | 1004.7 |
| 20260506101919 | 47 | 69 | 2.6 | 7.8 | 0.05 | 0.31 | 0.08 | 91 | 1004.8 |
| 20260506101418 | 47 | 69 | 2.6 | 7.8 | 0.05 | 0.31 | 0.08 | 91 | 1004.7 |
| 20260506100919 | 47 | 61 | 2.6 | 7.0 | 0.04 | 0.30 | 0.07 | 91 | 1004.8 |
| 20260506100422 | 47 | 67 | 3.5 | 6.1 | 0.05 | 0.30 | 0.07 | 91 | 1004.8 |
| 20260506095915 | 47 | 85 | 3.5 | 7.8 | 0.04 | 0.29 | 0.06 | 91 | 1004.8 |
| 20260506095414 | 47 | 82 | 4.3 | 8.7 | 0.04 | 0.28 | 0.05 | 91 | 1005.0 |
| 20260506094912 | 47 | 67 | 4.3 | 8.7 | 0.04 | 0.28 | 0.05 | 91 | 1004.7 |
| 20260506094411 | 47 | 61 | 3.5 | 7.8 | 0.04 | 0.28 | 0.05 | 91 | 1004.8 |
| 20260506093910 | 47 | 44 | 2.6 | 7.8 | 0.04 | 0.28 | 0.05 | 91 | 1004.8 |
| 20260506093625 | 47 | 53 | 2.6 | 6.1 | 0.04 | 0.27 | 0.04 | 91 | 1004.9 |
| 20260506093138 | 47 | 21 | 3.5 | 7.0 | 0.04 | 0.27 | 0.04 | 91 | 1005.1 |
| 20260506092401 | 47 | 346 | 4.3 | 8.7 | 0.04 | 0.27 | 0.04 | 91 | 1005.2 |
| 20260506092119 | 47 | 299 | 4.3 | 8.7 | 0.03 | 0.26 | 0.03 | 91 | 1005.5 |
| 20260506091357 | 47 | 0 | 2.6 | 8.7 | 0.03 | 0.26 | 0.03 | 91 | 1005.4 |
| 20260506090857 | 47 | 348 | 1.7 | 4.3 | 0.03 | 0.26 | 0.03 | 90 | 1005.3 |
| 20260506090352 | 47 | 336 | 1.7 | 4.3 | 0.02 | 0.25 | 0.02 | 90 | 1005.2 |
| 20260506085853 | 47 | 5 | 0.9 | 2.6 | 0.02 | 0.25 | 0.02 | 90 | 1005.1 |
| 20260506085354 | 47 | 5 | 0.9 | 2.6 | 0.01 | 0.24 | 0.01 | 90 | 1005.2 |
| 20260506084853 | 47 | 24 | 0.9 | 3.5 | 0.01 | 0.24 | 0.01 | 90 | 1005.0 |
| 20260506084353 | 47 | 22 | 1.7 | 4.3 | 0.01 | 0.24 | 0.01 | 90 | 1005.1 |
| 20260506084324 | 47 | 5 | 2.6 | 6.1 | 0.01 | 0.24 | 0.01 | 90 | 1005.2 |
| 20260506083345 | 47 | 13 | 3.5 | 7.0 | 0.00 | 0.23 | 0.00 | 90 | 1004.9 |
| 20260506082845 | 47 | 274 | 4.3 | 9.6 | 0.00 | 0.23 | 0.00 | 90 | 1005.0 |
| 20260506082345 | 48 | 26 | 5.2 | 9.6 | 0.00 | 0.23 | 0.00 | 89 | 1005.1 |
| 20260506081844 | 48 | 103 | 3.5 | 8.7 | 0.00 | 0.23 | 0.00 | 90 | 1004.7 |
| 20260506081345 | 48 | 290 | 1.7 | 6.1 | 0.00 | 0.23 | 0.00 | 90 | 1004.9 |
| 20260506080844 | 48 | 174 | 0.9 | 3.5 | 0.00 | 0.23 | 0.00 | 90 | 1004.9 |
| 20260506080344 | 48 | 79 | 0.9 | 3.5 | 0.00 | 0.23 | 0.00 | 90 | 1004.8 |
| 20260506073329 | 48 | 65 | 0.9 | 3.5 | 0.00 | 0.23 | 0.00 | 90 | 1005.1 |
| 20260506072808 | 47 | 74 | 0.9 | 3.5 | 0.00 | 0.23 | 0.00 | 90 | 1005.0 |
| 20260506072259 | 47 | 88 | 0.9 | 2.6 | 0.00 | 0.23 | 0.00 | 90 | 1005.0 |
| 20260506071755 | 47 | 90 | 0.9 | 3.5 | 0.00 | 0.23 | 0.00 | 90 | 1005.0 |
| 20260506071253 | 47 | 88 | 1.7 | 6.1 | 0.00 | 0.23 | 0.00 | 90 | 1005.0 |
| 20260506070752 | 47 | 82 | 1.7 | 6.1 | 0.00 | 0.23 | 0.00 | 90 | 1005.0 |
| 20260506070253 | 47 | 108 | 1.7 | 3.5 | 0.00 | 0.23 | 0.00 | 91 | 1005.1 |
| 20260506061735 | 46 | 22 | 2.6 | 4.3 | 0.00 | 0.23 | 0.00 | 90 | 1006.0 |
| 20260506061237 | 46 | 27 | 2.6 | 5.2 | 0.00 | 0.23 | 0.00 | 90 | 1006.1 |
| 20260506060732 | 46 | 0 | 2.6 | 5.2 | 0.00 | 0.23 | 0.00 | 90 | 1006.1 |
| 20260506060230 | 46 | 5 | 1.7 | 3.5 | 0.00 | 0.23 | 0.00 | 90 | 1006.2 |
| 20260506051214 | 46 | 349 | 1.7 | 3.5 | 0.00 | 0.23 | 0.00 | 89 | 1006.7 |
| 20260506050711 | 47 | 39 | 0.9 | 3.5 | 0.00 | 0.23 | 0.00 | 89 | 1006.8 |
| 20260506050209 | 47 | 86 | 1.7 | 5.2 | 0.00 | 0.23 | 0.00 | 89 | 1006.8 |
| 20260506044654 | 47 | 305 | 0.0 | 1.7 | 0.00 | 0.23 | 0.00 | 88 | 1006.8 |
| 20260506044153 | 47 | 305 | 0.9 | 3.5 | 0.00 | 0.23 | 0.00 | 88 | 1007.0 |
| 20260506043909 | 47 | 305 | 0.9 | 3.5 | 0.00 | 0.23 | 0.00 | 88 | 1007.0 |
| 20260506043143 | 47 | 64 | 1.7 | 6.1 | 0.00 | 0.23 | 0.00 | 87 | 1007.0 |
| 20260506042639 | 47 | 65 | 2.6 | 6.1 | 0.00 | 0.23 | 0.00 | 88 | 1006.8 |
| 20260506042135 | 47 | 63 | 2.6 | 6.1 | 0.00 | 0.23 | 0.00 | 87 | 1006.7 |
| 20260506041629 | 47 | 64 | 1.7 | 6.1 | 0.00 | 0.23 | 0.00 | 87 | 1006.8 |
| 20260506041124 | 47 | 74 | 1.7 | 6.1 | 0.00 | 0.23 | 0.00 | 87 | 1006.6 |
| 20260506040609 | 48 | 63 | 0.9 | 2.6 | 0.00 | 0.23 | 0.00 | 87 | 1006.6 |
| 20260506035556 | 48 | 59 | 2.6 | 7.0 | 0.00 | 0.23 | 0.23 | 86 | 1006.9 |
| 20260506035052 | 48 | 70 | 3.5 | 5.2 | 0.00 | 0.23 | 0.23 | 86 | 1006.9 |
| 20260506034553 | 49 | 78 | 2.6 | 5.2 | 0.00 | 0.23 | 0.23 | 86 | 1007.0 |
| 20260506034051 | 49 | 29 | 1.7 | 5.2 | 0.00 | 0.23 | 0.23 | 86 | 1007.0 |
| 20260506033551 | 49 | 37 | 1.7 | 4.3 | 0.00 | 0.23 | 0.23 | 86 | 1007.3 |
| 20260506033050 | 49 | 15 | 1.7 | 4.3 | 0.00 | 0.23 | 0.23 | 86 | 1007.2 |
| 20260506032550 | 49 | 57 | 2.6 | 7.0 | 0.00 | 0.23 | 0.23 | 86 | 1007.5 |
| 20260506032053 | 49 | 68 | 3.5 | 7.0 | 0.00 | 0.23 | 0.23 | 86 | 1007.2 |
| 20260506031548 | 49 | 69 | 2.6 | 7.0 | 0.00 | 0.23 | 0.23 | 85 | 1007.2 |
| 20260506031046 | 49 | 70 | 2.6 | 6.1 | 0.00 | 0.23 | 0.23 | 85 | 1007.4 |